International Skating Union - Official Site

ISU World Cup Speed Skating Erfurt
January 19 - 21, 2018

Draw | Lap Times | Index | World Cup

Referee: Ivan  DYAKOV  (RUS)
Starter: Roland  STEENBECK  (GER)
StartTime: EndTime: Air Temp: Ice Temp: Humidity:
17:38 18:39 16.8℃ -6.9℃ 30%
Result 5000m Men Division B
Rankings as of Jan 20 2018 6:40PM
Rank: No.: Name: Nation: Time: Behind: Points:
1 114 Nils  van der Poel SWE SWE 6:22.98200m - 19.41 - (19.4)
600m - 49.16 - (29.7)
1000m - 1:19.48 - (30.3)
1400m - 1:50.07 - (30.5)
1800m - 2:20.40 - (30.3)
2200m - 2:50.76 - (30.3)
2600m - 3:20.85 - (30.0)
3000m - 3:51.27 - (30.4)
3400m - 4:21.79 - (30.5)
3800m - 4:52.29 - (30.5)
4200m - 5:22.66 - (30.3)
4600m - 5:52.91 - (30.2)
5000m - 6:22.98 - (30.0)
32
2 79 Sindre  Henriksen NOR NOR 6:26.28200m - 18.73 - (18.7)
600m - 48.89 - (30.1)
1000m - 1:19.78 - (30.8)
1400m - 1:50.28 - (30.5)
1800m - 2:20.54 - (30.2)
2200m - 2:51.00 - (30.4)
2600m - 3:21.67 - (30.6)
3000m - 3:52.69 - (31.0)
3400m - 4:23.37 - (30.6)
3800m - 4:53.76 - (30.3)
4200m - 5:24.05 - (30.2)
4600m - 5:54.75 - (30.6)
5000m - 6:26.28 - (31.5)
3.30 27
3 74 Marwin  Talsma NED NED 6:26.54200m - 19.84 - (19.8)
600m - 50.08 - (30.2)
1000m - 1:20.03 - (29.9)
1400m - 1:50.29 - (30.2)
1800m - 2:20.62 - (30.3)
2200m - 2:51.15 - (30.5)
2600m - 3:21.65 - (30.5)
3000m - 3:52.29 - (30.6)
3400m - 4:23.43 - (31.1)
3800m - 4:54.28 - (30.8)
4200m - 5:25.06 - (30.7)
4600m - 5:55.97 - (30.9)
5000m - 6:26.54 - (30.5)
3.56 23
4 107 Sergey  Trofimov RUS RUS 6:28.65200m - 19.23 - (19.2)
600m - 49.44 - (30.2)
1000m - 1:20.34 - (30.9)
1400m - 1:50.94 - (30.5)
1800m - 2:21.41 - (30.4)
2200m - 2:51.91 - (30.5)
2600m - 3:22.52 - (30.6)
3000m - 3:53.06 - (30.5)
3400m - 4:23.68 - (30.6)
3800m - 4:54.37 - (30.6)
4200m - 5:25.20 - (30.8)
4600m - 5:56.64 - (31.4)
5000m - 6:28.65 - (32.0)
5.67 19
5 64 Chris  Huizinga NED NED 6:29.51200m - 18.92 - (18.9)
600m - 49.14 - (30.2)
1000m - 1:19.38 - (30.2)
1400m - 1:49.46 - (30.0)
1800m - 2:19.89 - (30.4)
2200m - 2:50.26 - (30.3)
2600m - 3:20.69 - (30.4)
3000m - 3:51.31 - (30.6)
3400m - 4:21.84 - (30.5)
3800m - 4:52.91 - (31.0)
4200m - 5:24.47 - (31.5)
4600m - 5:56.17 - (31.6)
5000m - 6:29.51 - (33.3)
6.53 15
6 28 Viktor Hald  Thorup DEN DEN 6:29.56200m - 19.53 - (19.5)
600m - 49.58 - (30.0)
1000m - 1:19.73 - (30.1)
1400m - 1:50.15 - (30.4)
1800m - 2:20.62 - (30.4)
2200m - 2:51.20 - (30.5)
2600m - 3:22.04 - (30.8)
3000m - 3:52.71 - (30.6)
3400m - 4:23.81 - (31.0)
3800m - 4:54.97 - (31.1)
4200m - 5:26.28 - (31.3)
4600m - 5:57.86 - (31.5)
5000m - 6:29.56 - (31.6)
6.58 11
7 50 Michele  Malfatti ITA ITA 6:29.65200m - 19.69 - (19.6)
600m - 49.92 - (30.2)
1000m - 1:20.46 - (30.5)
1400m - 1:50.95 - (30.4)
1800m - 2:21.51 - (30.5)
2200m - 2:51.92 - (30.4)
2600m - 3:22.63 - (30.7)
3000m - 3:53.37 - (30.7)
3400m - 4:24.55 - (31.1)
3800m - 4:55.65 - (31.0)
4200m - 5:26.85 - (31.2)
4600m - 5:58.13 - (31.2)
5000m - 6:29.65 - (31.5)
6.67 9
8 93 Konrad  Niedzwiedzki POL POL 6:32.01200m - 19.17 - (19.1)
600m - 49.05 - (29.8)
1000m - 1:19.61 - (30.5)
1400m - 1:50.86 - (31.2)
1800m - 2:21.49 - (30.6)
2200m - 2:52.36 - (30.8)
2600m - 3:23.00 - (30.6)
3000m - 3:53.88 - (30.8)
3400m - 4:24.81 - (30.9)
3800m - 4:56.40 - (31.5)
4200m - 5:27.58 - (31.1)
4600m - 5:59.36 - (31.7)
5000m - 6:32.01 - (32.6)
9.03 7
9 17 Denny  Morrison CAN CAN 6:32.10200m - 19.30 - (19.3)
600m - 49.70 - (30.4)
1000m - 1:20.60 - (30.8)
1400m - 1:52.04 - (31.4)
1800m - 2:23.51 - (31.4)
2200m - 2:54.43 - (30.9)
2600m - 3:25.17 - (30.7)
3000m - 3:56.10 - (30.9)
3400m - 4:27.65 - (31.5)
3800m - 4:59.24 - (31.5)
4200m - 5:30.46 - (31.2)
4600m - 6:00.98 - (30.5)
5000m - 6:32.10 - (31.1)
9.12 6
10 3 Linus  Heidegger AUT AUT 6:32.73200m - 19.26 - (19.2)
600m - 49.37 - (30.1)
1000m - 1:19.93 - (30.5)
1400m - 1:50.61 - (30.6)
1800m - 2:21.20 - (30.5)
2200m - 2:51.86 - (30.6)
2600m - 3:22.59 - (30.7)
3000m - 3:53.22 - (30.6)
3400m - 4:24.07 - (30.8)
3800m - 4:55.52 - (31.4)
4200m - 5:27.28 - (31.7)
4600m - 5:59.57 - (32.2)
5000m - 6:32.73 - (33.1)
9.75 5
11 47 Riccardo  Bugari ITA ITA 6:33.86200m - 19.31 - (19.3)
600m - 49.39 - (30.0)
1000m - 1:20.25 - (30.8)
1400m - 1:51.29 - (31.0)
1800m - 2:22.23 - (30.9)
2200m - 2:53.19 - (30.9)
2600m - 3:24.25 - (31.0)
3000m - 3:55.18 - (30.9)
3400m - 4:26.52 - (31.3)
3800m - 4:58.02 - (31.5)
4200m - 5:29.77 - (31.7)
4600m - 6:01.60 - (31.8)
5000m - 6:33.86 - (32.2)
10.88 4
12 80 Allan Dahl  Johansson NOR NOR 6:34.51200m - 18.70 - (18.6)
600m - 47.93 - (29.2)
1000m - 1:18.08 - (30.1)
1400m - 1:48.35 - (30.2)
1800m - 2:18.62 - (30.2)
2200m - 2:49.11 - (30.4)
2600m - 3:19.76 - (30.6)
3000m - 3:51.02 - (31.2)
3400m - 4:22.80 - (31.7)
3800m - 4:55.01 - (32.2)
4200m - 5:27.90 - (32.8)
4600m - 6:01.25 - (33.3)
5000m - 6:34.51 - (33.2)
11.53 3
13 100 Sergey  Gryaztsov RUS RUS 6:35.50 (1) 200m - 18.98 - (18.9)
600m - 49.13 - (30.1)
1000m - 1:19.84 - (30.7)
1400m - 1:50.65 - (30.8)
1800m - 2:21.52 - (30.8)
2200m - 2:52.69 - (31.1)
2600m - 3:23.97 - (31.2)
3000m - 3:55.44 - (31.4)
3400m - 4:27.11 - (31.6)
3800m - 4:59.10 - (31.9)
4200m - 5:31.23 - (32.1)
4600m - 6:03.55 - (32.3)
5000m - 6:35.50 - (31.9)
12.52 2
14 97 Adrian  Wielgat POL POL 6:35.50 (4) 200m - 19.36 - (19.3)
600m - 49.97 - (30.6)
1000m - 1:21.44 - (31.4)
1400m - 1:52.85 - (31.4)
1800m - 2:23.75 - (30.9)
2200m - 2:54.73 - (30.9)
2600m - 3:25.86 - (31.1)
3000m - 3:56.95 - (31.0)
3400m - 4:28.25 - (31.3)
3800m - 4:59.63 - (31.3)
4200m - 5:31.65 - (32.0)
4600m - 6:03.65 - (32.0)
5000m - 6:35.50 - (31.8)
12.52 1
15 96 Jan  Szymanski POL POL 6:36.81200m - 19.26 - (19.2)
600m - 49.48 - (30.2)
1000m - 1:19.97 - (30.4)
1400m - 1:51.04 - (31.0)
1800m - 2:22.06 - (31.0)
2200m - 2:53.30 - (31.2)
2600m - 3:24.65 - (31.3)
3000m - 3:56.19 - (31.5)
3400m - 4:28.32 - (32.1)
3800m - 5:00.07 - (31.7)
4200m - 5:32.55 - (32.4)
4600m - 6:05.59 - (33.0)
5000m - 6:36.80 - (31.2)
13.83 0
16 9 Vitaly  Mikhailov BLR BLR 6:37.03200m - 19.56 - (19.5)
600m - 49.75 - (30.1)
1000m - 1:20.72 - (30.9)
1400m - 1:51.76 - (31.0)
1800m - 2:22.78 - (31.0)
2200m - 2:53.94 - (31.1)
2600m - 3:25.58 - (31.6)
3000m - 3:57.42 - (31.8)
3400m - 4:29.46 - (32.0)
3800m - 5:01.50 - (32.0)
4200m - 5:33.63 - (32.1)
4600m - 6:05.40 - (31.7)
5000m - 6:37.03 - (31.6)
14.05 0
17 98 Patryk   Wójcik POL POL 6:38.50200m - 19.33 - (19.3)
600m - 50.45 - (31.1)
1000m - 1:21.56 - (31.1)
1400m - 1:52.65 - (31.0)
1800m - 2:23.75 - (31.0)
2200m - 2:55.10 - (31.3)
2600m - 3:26.49 - (31.3)
3000m - 3:57.87 - (31.3)
3400m - 4:29.35 - (31.4)
3800m - 5:01.30 - (31.9)
4200m - 5:33.86 - (32.5)
4600m - 6:06.69 - (32.8)
5000m - 6:38.50 - (31.8)
15.52 0
18 24 Sebastian  Druszkiewicz CZE CZE 6:38.85200m - 19.86 - (19.8)
600m - 50.71 - (30.8)
1000m - 1:21.79 - (31.0)
1400m - 1:52.41 - (30.6)
1800m - 2:23.35 - (30.9)
2200m - 2:54.19 - (30.8)
2600m - 3:25.43 - (31.2)
3000m - 3:56.88 - (31.4)
3400m - 4:28.54 - (31.6)
3800m - 5:00.62 - (32.0)
4200m - 5:33.16 - (32.5)
4600m - 6:05.97 - (32.8)
5000m - 6:38.85 - (32.8)
15.87 0
19 27 Philip Due  Schmidt DEN DEN 6:44.54200m - 19.86 - (19.8)
600m - 51.26 - (31.3)
1000m - 1:22.62 - (31.3)
1400m - 1:54.10 - (31.4)
1800m - 2:25.67 - (31.5)
2200m - 2:57.49 - (31.8)
2600m - 3:29.38 - (31.8)
3000m - 4:01.27 - (31.8)
3400m - 4:33.25 - (31.9)
3800m - 5:05.50 - (32.2)
4200m - 5:38.03 - (32.5)
4600m - 6:11.15 - (33.1)
5000m - 6:44.54 - (33.3)
21.56 0
20 111 Martin  Hänggi SUI SUI 6:45.92200m - 20.32 - (20.3)
600m - 51.51 - (31.1)
1000m - 1:22.91 - (31.3)
1400m - 1:54.69 - (31.7)
1800m - 2:26.63 - (31.9)
2200m - 2:58.73 - (32.0)
2600m - 3:30.94 - (32.2)
3000m - 4:03.54 - (32.5)
3400m - 4:36.03 - (32.4)
3800m - 5:08.49 - (32.4)
4200m - 5:41.01 - (32.5)
4600m - 6:13.46 - (32.4)
5000m - 6:45.92 - (32.4)
22.94 0
21 89 Roland  Cieslak POL POL 6:47.05200m - 20.25 - (20.2)
600m - 51.45 - (31.2)
1000m - 1:23.12 - (31.6)
1400m - 1:54.52 - (31.3)
1800m - 2:25.92 - (31.3)
2200m - 2:57.71 - (31.7)
2600m - 3:29.75 - (32.0)
3000m - 4:02.23 - (32.4)
3400m - 4:35.80 - (33.5)
3800m - 5:09.70 - (33.8)
4200m - 5:42.85 - (33.1)
4600m - 6:15.04 - (32.1)
5000m - 6:47.05 - (32.0)
24.07 0
22 115 KC  Boutiette USA USA 6:50.66200m - 19.88 - (19.8)
600m - 51.88 - (32.0)
1000m - 1:24.33 - (32.4)
1400m - 1:56.71 - (32.3)
1800m - 2:29.17 - (32.4)
2200m - 3:01.78 - (32.6)
2600m - 3:34.31 - (32.5)
3000m - 4:07.03 - (32.7)
3400m - 4:40.23 - (33.2)
3800m - 5:13.47 - (33.2)
4200m - 5:45.75 - (32.2)
4600m - 6:17.89 - (32.1)
5000m - 6:50.66 - (32.7)
27.68 0
23 25 Jakub  Kopriva CZE CZE 6:51.98200m - 20.85 - (20.8)
600m - 53.02 - (32.1)
1000m - 1:25.36 - (32.3)
1400m - 1:57.79 - (32.4)
1800m - 2:30.21 - (32.4)
2200m - 3:02.60 - (32.3)
2600m - 3:35.49 - (32.8)
3000m - 4:07.98 - (32.4)
3400m - 4:40.89 - (32.9)
3800m - 5:13.83 - (32.9)
4200m - 5:46.66 - (32.8)
4600m - 6:19.43 - (32.7)
5000m - 6:51.98 - (32.5)
29.00 0
24 20 Yiming  Liu CHN CHN 6:53.22200m - 19.62 - (19.6)
600m - 50.57 - (30.9)
1000m - 1:22.52 - (31.9)
1400m - 1:54.65 - (32.1)
1800m - 2:26.74 - (32.0)
2200m - 2:59.02 - (32.2)
2600m - 3:32.03 - (33.0)
3000m - 4:05.64 - (33.6)
3400m - 4:39.50 - (33.8)
3800m - 5:12.55 - (33.0)
4200m - 5:45.89 - (33.3)
4600m - 6:19.43 - (33.5)
5000m - 6:53.22 - (33.7)
30.24 0
25 21 Aerchenghazi  Xiakaini CHN CHN 6:54.63200m - 21.39 - (21.3)
600m - 54.76 - (33.3)
1000m - 1:26.98 - (32.2)
1400m - 1:59.37 - (32.3)
1800m - 2:32.36 - (32.9)
2200m - 3:06.40 - (34.0)
2600m - 3:39.79 - (33.3)
3000m - 4:13.38 - (33.5)
3400m - 4:47.43 - (34.0)
3800m - 5:21.42 - (33.9)
4200m - 5:52.67 - (31.2)
4600m - 6:23.72 - (31.0)
5000m - 6:54.63 - (30.8)
31.65 0
26 5 Jordan  McMillen BEL BEL 6:54.66200m - 20.26 - (20.2)
600m - 51.80 - (31.5)
1000m - 1:23.95 - (32.1)
1400m - 1:56.54 - (32.5)
1800m - 2:29.11 - (32.5)
2200m - 3:01.65 - (32.5)
2600m - 3:34.55 - (32.9)
3000m - 4:07.16 - (32.6)
3400m - 4:39.73 - (32.5)
3800m - 5:12.82 - (33.0)
4200m - 5:46.54 - (33.7)
4600m - 6:20.59 - (34.0)
5000m - 6:54.66 - (34.0)
31.68 0
27 45 Bence  Dékány HUN HUN 6:57.54200m - 20.24 - (20.2)
600m - 51.26 - (31.0)
1000m - 1:22.98 - (31.7)
1400m - 1:54.96 - (31.9)
1800m - 2:27.39 - (32.4)
2200m - 3:00.20 - (32.8)
2600m - 3:33.29 - (33.0)
3000m - 4:06.88 - (33.5)
3400m - 4:40.95 - (34.0)
3800m - 5:14.84 - (33.8)
4200m - 5:49.14 - (34.3)
4600m - 6:23.90 - (34.7)
5000m - 6:57.54 - (33.6)
34.56 0
28 26 Oliver  Lindenskov DEN DEN 7:09.46200m - 20.31 - (20.3)
600m - 54.13 - (33.8)
1000m - 1:27.70 - (33.5)
1400m - 2:00.67 - (32.9)
1800m - 2:33.29 - (32.6)
2200m - 3:05.71 - (32.4)
2600m - 3:38.71 - (33.0)
3000m - 4:12.42 - (33.7)
3400m - 4:47.05 - (34.6)
3800m - 5:22.49 - (35.4)
4200m - 5:57.61 - (35.1)
4600m - 6:33.18 - (35.5)
5000m - 7:09.46 - (36.2)
46.48 0